Location: Pine Mountain Observatory
(43.7910°N, 120.9377°W)
Time: 18:55:54
(UTC-07:00)

Explorer 11/Cluster Stage 4 - Pass Details

Date: 03 June 2019
Orbit: 467 x 1260 km, 28.8° (Epoch: 24 June)

Event Time Altitude Azimuth Distance (km) Brightness Sun altitude
Rises 23:20:39 0° 230° (SW) 4,183 10.1 -19.8°
Reaches altitude 10° 23:24:17 10° 216° (SW) 3,226 9.4 -20.1°
Enters shadow 23:26:29 16° 204° (SSW) 2,756 9.0 -20.3°
Maximum altitude 23:30:18 23° 169° (S) 2,353 - -20.5°
Drops below altitude 10° 23:36:01 10° 122° (ESE) 3,050 - -20.9°
Sets 23:39:20 0° 108° (ESE) 3,904 - -21.1°
